Home   Weather   Görlitz   Past weeks

Flag for Germany Past Weather in Görlitz, Saxony, Germany — Yesterday and Last 2 Weeks

Now
69 °F

Scattered clouds.


Feels Like: 69 °F
Forecast: 58 / 72 °F
Wind: 1 mph from Southwest

Location: Liberec

Current Time: Jul 23, 2017 at 8:58:51 pm

Latest Report: Jul 23, 2017 at 8:00 pm


Visibility: 25 mi

Pressure: 29.91 "Hg

Humidity: 71%

Dew Point: 59 °F

Location of GörlitzLocation

Past Weather in Görlitz — Graph

°F

Görlitz Temperature Yesterday

Maximum temperature yesterday: 81 °F (at 2:00 pm)
Minimum temperature yesterday: 59 °F (at 3:00 am)
Average temperature yesterday: 70 °F

High & Low Weather Summary for the Past Weeks

 TemperatureHumidityPressure
High83 °F (Jul 19, 5:00 pm)97% (Jul 16, 6:00 am)30.27 "Hg (Jul 16, 6:00 am)
Low43 °F (Jul 14, 2:00 am)40% (Jul 19, 5:00 pm)29.69 "Hg (Jul 10, 7:00 pm)
Average64 °F74%29.98 "Hg
* Reported Jul 8 7:00 pm — Jul 23 7:00 pm, Görlitz. Weather by CustomWeather, © 2017

Note: Actual official high and low records may vary slightly from our data, if they occured in-between our weather recording intervals... More about our weather records

Advertising

Görlitz Weather History for the Previous 24 Hours

Scroll right to see more
 ConditionsComfort  
Time TempWeatherWind HumidityBarometerVisibility
7:00 pm
Sun, Jul 23
71 °FMild.1 mph59%29.91 "Hg12 mi
6:00 pm71 °FMild.2 mph60%29.93 "Hg12 mi
5:00 pm71 °FScattered clouds.3 mph59%29.95 "Hg25 mi
4:00 pm66 °FThunderstorms. Partly sunny.2 mph85%29.96 "Hg22 mi
3:00 pm64 °FThundershowers. Overcast.5 mph86%29.98 "Hg3 mi
2:00 pm71 °FOvercast.2 mph64%29.94 "Hg22 mi
1:00 pm70 °FOvercast.2 mph69%29.96 "Hg19 mi
12:00 pm68 °FOvercast.2 mph75%29.96 "Hg16 mi
11:00 am68 °FOvercast.2 mph80%29.96 "Hg9 mi
10:00 am69 °FOvercast.2 mph78%29.94 "Hg7 mi
9:00 am70 °FOvercast.2 mph74%29.93 "Hg13 mi
7:00 am62 °FCool.1 mph90%29.93 "Hg12 mi
6:00 am58 °FRain showers. Cloudy.2 mph95%29.94 "Hg3 mi
2:00 am59 °FLight rain. Overcast.1 mph97%29.96 "Hg1 mi
1:00 am59 °FDuststorm.No wind97%29.96 "Hg0 mi
12:00 am60 °FRain showers. Overcast.1 mph97%29.97 "Hg0 mi
11:00 pm
Sat, Jul 22
62 °FCool.1 mph96%29.96 "Hg4 mi
10:00 pm63 °FFog.1 mph96%29.97 "Hg2 mi
9:00 pm65 °FFog.1 mph96%29.95 "Hg4 mi
8:00 pm68 °FScattered clouds.1 mph87%29.92 "Hg17 mi
Weather by CustomWeather, © 2017

See weather overviewHow to use our weather pages